Theta_e
345 345 345 345 346 346 345 341 338 336 335 332 330 330 329 325 324 327 326 328 327 327 327 326 326 327 327 327 327 327 326 325 326 326 327 326 327 327 323 324 326 324 325
343 343 343 342 343 340 336 334 332 331 329 327 325 324 322 322 321 319 320 321 321 321 321 321 320 320 321 320 321 323 324 321 322 323 321 317 318 320 321 320 321 322 322
341 339 338 337 334 330 327 325 323 322 322 321 320 319 319 318 318 319 318 316 316 316 317 318 318 317 317 317 317 317 316 314 315 316 318 319 319 319 319 320 321 320 320
332 331 329 327 325 324 323 321 320 318 317 316 315 314 314 313 313 315 315 312 309 305 305 309 312 313 314 314 314 312 308 307 307 308 310 312 312 313 313 315 317 317 319
327 325 324 323 321 319 317 316 315 314 313 313 313 313 313 312 311 310 309 309 307 304 302 311 313 313 312 311 310 310 308 307 308 308 309 311 311 312 312 312 313 313 314
322 320 319 318 317 316 315 313 311 310 309 309 309 310 310 309 309 308 307 305 303 302 307 312 313 312 311 310 308 308 306 306 306 306 306 306 307 308 308 309 309 309 310
319 318 316 316 315 315 314 312 309 306 304 304 305 307 308 307 307 306 305 305 308 308 310 310 310 309 307 306 305 303 303 305 306 306 306 305 305 305 304 304 304 304 304
315 315 314 314 312 311 309 306 304 304 305 306 308 308 308 307 306 305 305 305 306 307 307 307 306 306 305 304 303 301 302 303 304 304 305 305 305 304 304 304 304 304 304
312 311 310 309 306 304 303 304 305 307 309 309 308 307 306 306 307 306 306 305 305 305 305 306 306 305 304 303 302 302 303 304 305 305 306 307 307 307 306 306 306 306 306
309 308 306 303 302 302 304 307 308 309 309 307 307 306 307 306 304 303 303 303 303 303 304 304 304 304 303 302 303 304 303 305 306 307 307 307 307 308 307 306 305 304 304
307 306 303 303 305 306 308 307 306 306 306 306 306 305 304 303 303 304 303 303 303 302 302 302 302 303 302 303 304 305 304 305 306 306 306 306 306 305 306 305 305 304 303
305 304 305 305 307 306 306 306 306 306 305 305 305 304 303 303 303 303 303 302 301 301 301 301 301 301 303 304 304 304 304 304 303 304 304 304 304 304 303 303 303 304 303
305 306 306 306 305 305 304 304 304 304 304 304 304 304 303 302 302 302 303 301 299 299 299 300 301 302 303 303 303 303 303 302 303 302 302 302 301 302 301 302 303 305 306
305 304 306 305 304 303 303 303 304 303 302 303 302 302 302 301 301 302 302 301 300 300 300 301 301 301 301 300 301 301 300 299 299 299 299 298 299 299 300 300 302 304 306
304 305 305 303 302 303 303 303 303 303 303 301 301 301 301 301 301 301 301 300 300 300 300 300 300 299 300 299 298 298 297 296 296 295 295 295 296 297 300 300 304 304 304
304 303 303 303 302 301 302 301 300 301 302 302 302 302 302 301 300 301 301 300 299 299 298 297 297 296 296 296 295 295 295 294 294 293 293 293 293 295 299 303 305 304 305
302 302 302 301 301 301 301 301 300 299 299 300 301 301 301 300 300 300 300 300 299 298 296 295 295 294 294 293 292 291 292 292 292 292 293 295 295 296 300 303 304 305 308
302 301 301 301 301 301 300 300 300 299 297 298 300 300 300 299 299 299 299 298 297 295 294 293 293 292 292 292 292 292 292 292 292 292 295 296 297 299 301 303 304 305 306
300 300 301 301 301 300 300 300 299 298 297 297 297 297 297 296 295 293 293 293 292 292 292 293 293 293 293 293 293 293 293 292 292 294 296 297 298 299 301 302 304 307 307
299 300 300 299 299 299 299 298 297 297 297 296 296 296 297 296 295 294 294 294 294 293 293 294 294 294 294 293 292 292 291 291 293 294 296 297 298 299 300 302 304 305 309
298 298 299 299 300 300 299 299 298 298 297 294 293 295 295 295 295 295 295 294 294 294 294 294 294 293 292 292 290 290 290 292 294 294 295 297 298 298 299 301 303 306 309
298 299 300 300 300 300 300 300 299 299 298 296 295 294 295 295 295 294 294 294 294 294 293 293 293 292 291 289 289 289 289 292 293 295 296 296 297 298 298 300 304 306 308
299 299 300 301 300 299 299 298 297 297 296 295 295 295 294 294 294 294 294 294 293 293 292 292 292 290 288 288 288 288 289 291 293 294 295 296 297 297 298 298 301 305 307
298 299 298 297 298 297 297 296 296 296 295 295 294 294 294 293 293 293 293 292 292 292 291 290 290 290 287 288 288 288 288 289 292 293 294 295 296 296 298 298 298 302 305
297 298 298 297 297 296 296 295 295 294 294 294 294 293 293 292 292 291 291 291 291 291 291 290 289 289 287 287 288 288 288 289 290 292 292 293 295 296 296 297 297 298 300
296 297 297 296 296 296 295 295 294 294 293 293 292 292 291 291 291 291 290 290 290 290 290 289 288 288 287 287 287 287 288 289 289 290 291 292 295 295 296 295 296 297 297
Wind_Speed
32 33 32 33 29 25 19 17 14 12 9 5 10 8 5 3 3 3 5 4 7 8 9 11 11 11 13 13 14 14 15 16 19 23 23 24 27 30 29 29 21 20 22
36 35 32 29 26 23 21 18 17 16 14 13 9 6 3 5 9 7 7 7 7 9 11 12 15 15 16 16 11 14 13 12 16 22 24 26 28 23 20 19 21 24 30
36 35 31 28 27 25 23 21 18 15 12 8 5 2 2 2 2 8 15 14 14 13 12 14 17 17 16 16 19 19 19 20 20 20 22 20 22 22 24 26 26 24 24
36 34 33 32 30 27 24 19 14 10 6 3 2 3 6 5 8 13 17 17 17 17 16 15 15 16 17 17 20 25 25 23 22 22 23 22 21 21 22 21 19 15 18
36 36 34 30 26 22 18 14 9 6 4 2 3 3 6 9 10 15 19 23 24 22 16 9 12 15 19 20 19 19 21 22 21 18 18 19 18 21 22 24 27 28 29
34 33 29 25 21 17 13 9 5 2 3 4 5 6 6 14 17 21 24 26 22 14 7 11 9 13 12 13 15 18 19 18 19 19 20 22 23 23 26 30 32 34 38
31 29 27 23 20 16 9 3 2 5 8 9 9 9 11 15 18 21 20 9 9 8 8 11 12 18 19 17 16 19 16 12 15 18 20 23 26 26 25 26 29 31 35
30 27 23 18 15 10 4 2 5 7 8 7 7 4 9 12 15 14 8 6 9 10 11 13 11 12 14 18 24 22 16 14 12 16 18 22 23 24 24 25 27 29 32
24 21 16 12 9 4 2 4 5 5 9 5 2 4 8 9 7 8 9 12 14 11 12 10 10 13 17 21 20 17 12 9 10 14 15 16 17 19 22 25 28 30 35
17 14 11 7 5 3 3 4 6 7 4 2 3 5 7 8 9 10 11 9 8 6 9 11 11 13 18 20 16 16 15 14 15 14 15 15 17 19 20 22 24 27 30
13 8 6 10 6 7 6 3 5 5 6 7 8 10 12 11 13 12 13 12 11 8 6 6 12 15 15 13 14 14 15 18 18 19 23 20 20 20 21 26 27 27 29
7 7 7 10 9 5 7 7 8 10 11 10 11 9 8 10 14 15 12 11 9 10 8 9 11 9 11 13 13 12 15 18 20 22 24 25 27 28 32 32 32 32 26
5 7 9 6 7 6 9 10 7 8 9 9 5 4 6 9 10 13 12 11 12 10 10 7 9 9 10 13 13 15 18 21 21 21 24 27 26 27 26 32 35 34 27
1 5 3 1 6 9 6 7 5 9 8 5 4 4 3 4 8 10 12 13 13 8 8 9 10 10 12 13 14 15 20 20 22 24 26 27 29 29 31 31 36 33 27
4 7 3 5 3 3 4 5 7 7 6 6 6 4 5 5 8 11 12 13 11 11 11 9 8 12 13 16 19 22 23 24 26 27 29 32 32 32 31 31 33 32 26
4 8 11 5 2 4 9 10 8 6 4 6 6 6 6 7 8 10 10 9 11 7 7 11 15 17 19 20 22 26 25 27 29 30 32 30 29 29 29 30 31 30 30
7 6 12 8 9 8 7 7 7 8 9 9 6 6 6 9 10 10 9 10 8 8 14 16 17 18 18 20 23 24 26 28 30 33 33 28 27 27 29 31 31 32 29
10 12 13 9 10 10 7 6 8 8 6 9 9 8 8 11 11 9 9 8 11 13 14 17 19 22 24 25 29 32 32 31 31 36 29 26 27 31 32 32 30 31 34
11 13 12 10 10 10 10 10 10 7 7 7 9 10 17 18 17 15 15 17 18 19 20 20 20 22 23 25 26 27 28 29 31 29 27 28 32 34 35 34 32 32 31
14 14 10 10 12 10 9 9 9 10 10 8 5 5 8 11 10 13 17 17 18 18 19 19 19 20 20 22 23 23 27 31 30 29 30 32 35 37 40 41 35 31 29
11 15 13 11 10 10 10 10 8 8 9 11 16 16 13 12 10 11 12 14 15 16 17 17 18 20 20 22 27 28 32 32 31 31 33 36 37 40 43 42 36 31 30
12 15 13 11 11 10 10 11 10 8 8 7 8 13 12 10 10 10 12 13 13 14 14 15 18 19 20 24 28 31 33 32 32 33 35 34 38 39 42 41 39 34 28
16 13 12 11 11 14 12 11 10 9 9 9 9 9 9 10 11 12 12 12 13 13 13 14 17 19 23 26 28 31 33 31 30 32 33 34 37 37 35 42 39 39 34
18 17 13 12 11 12 12 11 14 11 9 9 10 11 11 10 11 11 11 12 12 12 13 14 16 18 24 26 27 28 30 27 24 26 28 31 33 31 32 38 41 35 35
20 12 14 13 13 14 14 13 12 10 9 9 11 11 10 10 11 11 11 11 11 12 12 13 16 19 23 24 26 27 28 28 26 22 27 26 26 30 31 32 36 40 36
13 14 14 13 14 13 13 12 11 11 10 9 10 11 11 9 9 10 9 11 11 11 11 13 14 17 21 23 24 26 27 28 28 26 27 25 23 28 31 34 33 36 40
Wind_Direction
173 175 167 169 172 169 172 163 154 140 126 114 94 82 68 11 5 358 23 341 308 324 328 318 313 315 317 318 332 333 328 320 308 301 299 296 287 293 291 287 280 272 268
173 164 161 158 156 159 151 148 147 144 139 130 121 102 57 358 339 329 308 300 302 309 298 310 299 295 292 301 298 286 293 302 309 311 305 307 309 318 310 302 296 288 279
156 154 148 146 143 136 130 127 130 132 135 129 125 99 313 301 5 286 279 281 288 293 294 292 302 302 310 299 293 293 298 292 286 291 297 302 306 308 311 307 299 296 287
131 138 135 133 132 131 132 132 131 130 119 79 44 352 322 319 282 265 279 294 301 302 304 303 304 311 295 294 296 298 299 300 297 292 290 296 299 303 302 299 298 302 310
124 124 127 127 127 127 125 121 117 117 101 56 346 341 316 309 291 285 293 299 302 305 307 328 305 292 300 300 298 306 311 315 317 314 310 306 312 301 309 297 293 291 281
121 120 120 118 113 107 103 104 103 54 344 323 311 307 307 292 298 299 303 308 311 311 329 285 276 298 300 307 315 315 317 326 318 319 315 311 309 303 300 298 297 297 301
115 112 109 107 105 100 102 96 13 325 316 313 317 323 296 300 305 312 325 353 359 332 299 297 297 295 304 308 313 323 322 327 315 315 312 311 311 316 314 308 304 301 292
110 108 108 108 105 102 105 353 325 319 329 357 22 311 303 314 322 339 346 346 332 324 320 312 333 327 329 329 329 330 325 310 305 303 299 298 301 303 302 302 303 302 304
113 109 108 110 102 91 8 345 346 37 61 77 254 297 313 359 20 12 19 33 359 10 353 342 310 318 321 325 333 337 349 344 322 309 312 316 317 306 298 299 298 299 297
98 99 100 94 75 34 32 69 92 107 184 128 3 18 8 19 28 15 13 5 337 4 359 345 334 321 319 332 336 335 339 340 346 352 344 342 348 343 346 346 328 308 301
97 104 72 70 50 75 115 121 119 109 80 65 46 29 26 15 5 359 1 358 355 358 360 339 334 314 325 332 336 345 344 337 335 339 335 338 333 337 340 343 330 324 305
73 65 67 84 118 75 97 90 86 85 67 52 64 52 13 1 346 351 0 358 354 355 350 337 317 342 350 353 347 348 342 338 337 333 338 338 331 328 324 326 332 327 308
30 71 92 114 75 85 103 96 81 92 88 79 82 82 19 1 324 344 355 4 8 9 352 352 348 357 356 355 350 340 333 337 335 333 320 317 319 316 315 317 332 334 321
19 54 128 82 100 121 128 128 127 121 98 111 96 73 53 321 344 1 9 18 19 46 33 18 11 7 357 347 337 329 332 335 333 328 330 328 326 327 328 330 336 337 332
128 136 115 108 126 114 105 102 97 112 130 146 127 83 54 22 12 14 16 18 25 40 33 13 342 351 350 353 344 350 348 349 347 342 339 336 333 329 330 337 342 341 335
151 133 129 106 162 71 105 100 86 86 93 107 99 71 52 35 35 26 21 23 33 44 19 20 16 14 11 5 357 351 356 356 350 348 345 340 339 337 341 345 347 347 344
193 136 146 145 120 103 94 66 60 82 87 89 96 81 54 42 37 26 23 30 33 46 48 32 22 13 7 4 357 360 6 356 358 355 351 350 351 353 353 351 351 353 351
154 146 121 134 136 126 115 90 77 54 44 64 65 65 61 48 42 33 39 43 40 41 48 35 21 17 14 5 1 7 2 352 350 352 358 6 8 5 1 360 359 358 358
135 124 133 126 147 140 132 134 131 131 103 64 44 46 53 45 35 40 50 44 44 35 42 33 20 15 11 5 1 359 355 351 345 2 11 15 17 12 9 6 4 4 5
144 141 133 134 132 127 125 123 122 111 99 84 86 83 61 54 40 39 40 43 38 30 39 31 20 17 11 6 354 359 356 354 7 15 18 21 19 17 13 10 5 2 6
142 142 137 131 129 133 133 125 115 114 112 82 78 92 92 78 59 52 51 47 40 31 31 31 21 9 9 359 6 10 7 13 14 19 21 20 17 15 13 9 7 8 11
145 137 131 142 135 133 126 117 111 114 112 95 79 73 76 78 67 62 54 50 44 37 27 32 23 5 5 5 11 14 12 15 15 18 22 17 18 14 9 6 13 14 8
151 141 136 138 147 133 121 119 119 117 114 111 104 89 81 74 67 62 53 48 43 38 25 28 23 359 10 14 16 16 12 13 15 18 16 17 16 9 3 7 9 15 11
140 134 142 135 126 135 135 135 121 122 117 111 101 90 81 72 66 63 59 47 43 38 24 23 28 354 8 14 16 16 15 13 14 21 20 17 12 7 1 4 9 8 13
131 128 141 134 132 125 122 121 121 120 117 111 104 96 83 82 68 54 58 51 44 32 29 9 29 350 7 12 14 14 14 12 13 20 26 23 20 21 17 9 5 9 11
128 131 135 134 130 130 126 123 123 121 114 106 102 98 102 80 86 60 46 59 41 38 23 2 24 354 7 11 14 13 13 12 12 13 26 22 34 30 23 13 14 10 9